Flag for Germany Weather past 2 weeks in Wiesbaden, Hesse, Germany

Now
57 °F

Mostly cloudy.


Feels Like: 54 °F
Forecast: 43 / 49 °F
Wind: 15 mph from Southwest

Location: Wiesbaden Airport

Current Time: Oct 21, 2014 at 2:07:31 PM

Latest Report: Oct 21, 2014 at 1:03 PM


Visibility: N/A

Pressure: 29.80 "Hg

Humidity: 77%

Dew point: 50 °F

Location of WiesbadenLocation

Historic Weather in Wiesbaden — Graph

°F

Wiesbaden temperature yesterday

Maximum temperature yesterday: 66 °F (at 1:58 PM)
Minimum temperature yesterday: 49 °F (at 11:58 PM)
Average temperature yesterday: 60 °F

Past Weeks' High & Low Weather Summary

 TemperatureHumidityPressure
High72 °F (Oct 19, 3:58 PM)100% (Oct 7, 5:58 AM)30.21 "Hg (Oct 7, 5:58 AM)
Low46 °F (Oct 21, 6:58 AM)59% (Oct 15, 3:58 PM)29.66 "Hg (Oct 7, 10:59 AM)
Average57 °F92%29.90 "Hg
* Reported Oct 6 2:01 PM — Oct 21 1:03 PM, Wiesbaden, Weather by CustomWeather, © 2014

Note: Actual official high and low records may vary slightly from our data, if they occured in-between our weather recording intervals... More about our weather records

Advertising

Wiesbaden weather history for previous 24 hours

 ConditionsComfort  
Time TempWeatherWind HumidityBarometerVisibility
1:03 PM
Oct 21
57 °FMostly cloudy.15 mph77%29.80 "HgN/A
11:58 AM55 °FCloudy.10 mph82%29.83 "HgN/A
10:58 AM53 °FOvercast.2 mph91%29.88 "HgN/A
9:58 AM51 °FOvercast.No wind93%29.89 "HgN/A
8:58 AM49 °FPartly sunny.2 mph100%29.91 "HgN/A
7:58 AM47 °FOvercast.No wind100%29.92 "HgN/A
6:58 AM46 °FPassing clouds.No wind100%29.93 "HgN/A
5:58 AM46 °FClear.1 mph100%29.94 "HgN/A
4:58 AM47 °FClear.2 mph100%29.95 "HgN/A
3:58 AM49 °FClear.5 mph99%29.96 "HgN/A
2:58 AM48 °FClear.6 mph100%29.98 "HgN/A
1:58 AM50 °FClear.3 mph98%29.99 "HgN/A
12:58 AM50 °FClear.No wind94%29.99 "HgN/A
11:58 PM
Oct 20
49 °FClear.3 mph97%29.99 "HgN/A
10:58 PM50 °FClear.No wind94%30.01 "HgN/A
9:58 PM52 °FClear.3 mph88%30.01 "HgN/A
8:58 PM55 °FClear.5 mph80%30.01 "HgN/A
7:58 PM55 °FPassing clouds.2 mph82%30.01 "HgN/A
6:58 PM59 °FSunny.5 mph77%30.02 "HgN/A
5:58 PM61 °FPassing clouds.5 mph70%30.02 "HgN/A
4:58 PM62 °FScattered clouds.5 mph66%30.04 "HgN/A
3:58 PM64 °FOvercast.8 mph65%30.05 "HgN/A
2:58 PM65 °FPartly sunny.13 mph65%30.05 "HgN/A
Weather by CustomWeather, © 2014

See weather overviewHow to use our weather pages